Time,TemperatureF,DewpointF,PressureIn,WindDirection,WindDirectionDegrees,WindSpeedMPH,WindSpeedGustMPH,Humidity,HourlyPrecipIn,Conditions,Clouds,dailyrainin,SoftwareType,DateUTC
2013-08-20 00:12:00,75.0,-99.9,-100.00,South,177,2.0,-999.0,-999,0.00,,,0.00,,2013-08-20 05:12:00,
2013-08-20 00:22:00,75.0,-99.9,-100.00,South,177,2.0,-999.0,-999,0.00,,,0.00,,2013-08-20 05:22:00,
2013-08-20 00:43:00,75.0,-99.9,-100.00,SSE,162,3.0,-999.0,-999,0.00,,,0.00,,2013-08-20 05:43:00,
2013-08-20 00:52:00,75.0,-99.9,-100.00,SSE,162,3.0,-999.0,-999,0.00,,,0.00,,2013-08-20 05:52:00,
2013-08-20 01:11:00,73.0,-99.9,-100.00,South,182,1.0,-999.0,-999,0.00,,,0.00,,2013-08-20 06:11:00,
2013-08-20 01:22:00,73.0,-99.9,-100.00,South,182,1.0,-999.0,-999,0.00,,,0.00,,2013-08-20 06:22:00,
2013-08-20 01:42:00,73.0,-99.9,-100.00,South,172,2.0,-999.0,-999,0.00,,,0.00,,2013-08-20 06:42:00,
2013-08-20 01:52:00,73.0,-99.9,-100.00,South,172,2.0,-999.0,-999,0.00,,,0.00,,2013-08-20 06:52:00,
2013-08-20 02:11:00,72.0,-99.9,-100.00,SE,124,1.0,-999.0,-999,0.00,,,0.00,,2013-08-20 07:11:00,
2013-08-20 02:22:00,72.0,-99.9,-100.00,SE,124,1.0,-999.0,-999,0.00,,,0.00,,2013-08-20 07:22:00,
2013-08-20 02:42:00,73.0,-99.9,-100.00,SE,124,2.0,-999.0,-999,0.00,,,0.00,,2013-08-20 07:42:00,
2013-08-20 02:52:00,73.0,-99.9,-100.00,SE,124,2.0,-999.0,-999,0.00,,,0.00,,2013-08-20 07:52:00,
2013-08-20 03:11:00,73.0,-99.9,-100.00,ESE,108,2.0,-999.0,-999,0.00,,,0.00,,2013-08-20 08:11:00,
2013-08-20 03:22:00,73.0,-99.9,-100.00,ESE,108,2.0,-999.0,-999,0.00,,,0.00,,2013-08-20 08:22:00,
2013-08-20 03:42:00,71.0,-99.9,-100.00,SE,128,1.0,-999.0,-999,0.00,,,0.00,,2013-08-20 08:42:00,
2013-08-20 03:52:00,71.0,-99.9,-100.00,SE,128,1.0,-999.0,-999,0.00,,,0.00,,2013-08-20 08:52:00,
2013-08-20 04:11:00,70.0,-99.9,-100.00,West,272,1.0,-999.0,-999,0.00,,,0.00,,2013-08-20 09:11:00,
2013-08-20 04:21:00,70.0,-99.9,-100.00,West,272,1.0,-999.0,-999,0.00,,,0.00,,2013-08-20 09:21:00,
2013-08-20 04:42:00,71.0,-99.9,-100.00,SE,139,2.0,-999.0,-999,0.00,,,0.00,,2013-08-20 09:42:00,
2013-08-20 04:53:00,71.0,-99.9,-100.00,SE,139,2.0,-999.0,-999,0.00,,,0.00,,2013-08-20 09:53:00,
2013-08-20 05:12:00,71.0,-99.9,-100.00,SE,136,1.0,-999.0,-999,0.00,,,0.00,,2013-08-20 10:12:00,
2013-08-20 05:23:00,71.0,-99.9,-100.00,SE,136,1.0,-999.0,-999,0.00,,,0.00,,2013-08-20 10:23:00,
2013-08-20 05:43:00,69.0,-99.9,-100.00,SE,137,1.0,-999.0,-999,0.00,,,0.00,,2013-08-20 10:43:00,
2013-08-20 05:52:00,69.0,-99.9,-100.00,SE,137,1.0,-999.0,-999,0.00,,,0.00,,2013-08-20 10:52:00,
2013-08-20 06:11:00,68.0,-99.9,-100.00,South,175,1.0,-999.0,-999,0.00,,,0.00,,2013-08-20 11:11:00,
2013-08-20 06:22:00,68.0,-99.9,-100.00,South,175,1.0,-999.0,-999,0.00,,,0.00,,2013-08-20 11:22:00,
2013-08-20 06:42:00,68.0,-99.9,-100.00,SW,231,1.0,-999.0,-999,0.00,,,0.00,,2013-08-20 11:42:00,
2013-08-20 06:52:00,68.0,-99.9,-100.00,SW,231,1.0,-999.0,-999,0.00,,,0.00,,2013-08-20 11:52:00,
2013-08-20 07:12:00,68.0,-99.9,-100.00,NNE,26,1.0,-999.0,-999,0.00,,,0.00,,2013-08-20 12:12:00,
2013-08-20 07:22:00,68.0,-99.9,-100.00,NNE,26,1.0,-999.0,-999,0.00,,,0.00,,2013-08-20 12:22:00,
2013-08-20 07:42:00,68.0,-99.9,-100.00,SW,227,2.0,-999.0,-999,0.00,,,0.00,,2013-08-20 12:42:00,
2013-08-20 07:52:00,68.0,-99.9,-100.00,SW,227,2.0,-999.0,-999,0.00,,,0.00,,2013-08-20 12:52:00,
2013-08-20 08:11:00,69.0,-99.9,-100.00,SSE,155,4.0,-999.0,-999,0.00,,,0.00,,2013-08-20 13:11:00,
2013-08-20 08:22:00,69.0,-99.9,-100.00,SSE,155,4.0,-999.0,-999,0.00,,,0.00,,2013-08-20 13:22:00,
2013-08-20 08:42:00,71.0,-99.9,-100.00,SE,125,3.0,-999.0,-999,0.00,,,0.00,,2013-08-20 13:42:00,
2013-08-20 08:52:00,71.0,-99.9,-100.00,SE,125,3.0,-999.0,-999,0.00,,,0.00,,2013-08-20 13:52:00,
2013-08-20 09:11:00,73.0,-99.9,-100.00,SE,132,4.0,-999.0,-999,0.00,,,0.00,,2013-08-20 14:11:00,
2013-08-20 09:22:00,73.0,-99.9,-100.00,SE,132,4.0,-999.0,-999,0.00,,,0.00,,2013-08-20 14:22:00,
2013-08-20 09:42:00,75.0,-99.9,-100.00,SSE,157,3.0,-999.0,-999,0.00,,,0.00,,2013-08-20 14:42:00,
2013-08-20 09:52:00,75.0,-99.9,-100.00,SSE,157,3.0,-999.0,-999,0.00,,,0.00,,2013-08-20 14:52:00,
2013-08-20 10:12:00,77.0,-99.9,-100.00,SSW,208,3.0,-999.0,-999,0.00,,,0.00,,2013-08-20 15:12:00,
2013-08-20 10:22:00,77.0,-99.9,-100.00,SSW,208,3.0,-999.0,-999,0.00,,,0.00,,2013-08-20 15:22:00,
2013-08-20 10:30:00,-999.0,-99.9,-100.00,SSW,196,1.0,-999.0,-999,0.00,,,0.00,,2013-08-20 15:30:00,
2013-08-20 10:43:00,78.0,-99.9,-100.00,South,179,4.0,-999.0,-999,0.00,,,0.00,,2013-08-20 15:43:00,
2013-08-20 10:54:00,78.0,-99.9,-100.00,South,179,4.0,-999.0,-999,0.00,,,0.00,,2013-08-20 15:54:00,
2013-08-20 11:15:00,81.0,-99.9,-100.00,SSW,196,1.0,-999.0,-999,0.00,,,0.00,,2013-08-20 16:15:00,
2013-08-20 11:42:00,82.0,-99.9,-100.00,ENE,72,0.0,-999.0,-999,0.00,,,0.00,,2013-08-20 16:42:00,
2013-08-20 11:53:00,82.0,-99.9,-100.00,ENE,72,0.0,-999.0,-999,0.00,,,0.00,,2013-08-20 16:53:00,
2013-08-20 12:12:00,83.0,-99.9,-100.00,East,79,3.0,-999.0,-999,0.00,,,0.00,,2013-08-20 17:12:00,
2013-08-20 12:24:00,83.0,-99.9,-100.00,East,79,3.0,-999.0,-999,0.00,,,0.00,,2013-08-20 17:24:00,
2013-08-20 12:43:00,83.0,-99.9,-100.00,ESE,107,3.0,-999.0,-999,0.00,,,0.00,,2013-08-20 17:43:00,
2013-08-20 12:52:00,83.0,-99.9,-100.00,ESE,107,3.0,-999.0,-999,0.00,,,0.00,,2013-08-20 17:52:00,
2013-08-20 13:12:00,83.0,-99.9,-100.00,SE,129,2.0,-999.0,-999,0.00,,,0.00,,2013-08-20 18:12:00,
2013-08-20 13:22:00,83.0,-99.9,-100.00,SE,129,2.0,-999.0,-999,0.00,,,0.00,,2013-08-20 18:22:00,
2013-08-20 13:43:00,85.0,-99.9,-100.00,ENE,59,2.0,-999.0,-999,0.00,,,0.00,,2013-08-20 18:43:00,
2013-08-20 13:52:00,85.0,-99.9,-100.00,ENE,59,2.0,-999.0,-999,0.00,,,0.00,,2013-08-20 18:52:00,
2013-08-20 14:11:00,86.0,-99.9,-100.00,North,8,3.0,-999.0,-999,0.00,,,0.00,,2013-08-20 19:11:00,
2013-08-20 14:22:00,86.0,-99.9,-100.00,North,8,3.0,-999.0,-999,0.00,,,0.00,,2013-08-20 19:22:00,
2013-08-20 14:42:00,85.0,-99.9,-100.00,ESE,123,4.0,-999.0,-999,0.00,,,0.00,,2013-08-20 19:42:00,
2013-08-20 14:53:00,85.0,-99.9,-100.00,ESE,123,4.0,-999.0,-999,0.00,,,0.00,,2013-08-20 19:53:00,
2013-08-20 15:12:00,87.0,-99.9,-100.00,East,99,3.0,-999.0,-999,0.00,,,0.00,,2013-08-20 20:12:00,
2013-08-20 15:22:00,87.0,-99.9,-100.00,East,99,3.0,-999.0,-999,0.00,,,0.00,,2013-08-20 20:22:00,
2013-08-20 15:42:00,85.0,-99.9,-100.00,SE,135,5.0,-999.0,-999,0.00,,,0.00,,2013-08-20 20:42:00,
2013-08-20 15:52:00,85.0,-99.9,-100.00,SE,135,5.0,-999.0,-999,0.00,,,0.00,,2013-08-20 20:52:00,
2013-08-20 16:11:00,85.0,-99.9,-100.00,SE,139,7.0,-999.0,-999,0.00,,,0.00,,2013-08-20 21:11:00,
2013-08-20 16:22:00,85.0,-99.9,-100.00,SE,139,7.0,-999.0,-999,0.00,,,0.00,,2013-08-20 21:22:00,
2013-08-20 16:44:00,87.0,-99.9,-100.00,SE,135,5.0,-999.0,-999,0.00,,,0.00,,2013-08-20 21:44:00,
2013-08-20 16:55:00,87.0,-99.9,-100.00,SE,135,5.0,-999.0,-999,0.00,,,0.00,,2013-08-20 21:55:00,
2013-08-20 17:14:00,86.0,-99.9,-100.00,SE,139,7.0,-999.0,-999,0.00,,,0.00,,2013-08-20 22:14:00,
2013-08-20 17:24:00,86.0,-99.9,-100.00,SE,139,7.0,-999.0,-999,0.00,,,0.00,,2013-08-20 22:24:00,
2013-08-20 17:42:00,86.0,-99.9,-100.00,SE,139,6.0,-999.0,-999,0.00,,,0.00,,2013-08-20 22:42:00,
2013-08-20 17:54:00,86.0,-99.9,-100.00,SE,139,6.0,-999.0,-999,0.00,,,0.00,,2013-08-20 22:54:00,
2013-08-20 18:13:00,85.0,-99.9,-100.00,SE,134,6.0,-999.0,-999,0.00,,,0.00,,2013-08-20 23:13:00,
2013-08-20 18:23:00,85.0,-99.9,-100.00,SE,134,6.0,-999.0,-999,0.00,,,0.00,,2013-08-20 23:23:00,
2013-08-20 18:43:00,85.0,-99.9,-100.00,SSE,147,4.0,-999.0,-999,0.00,,,0.00,,2013-08-20 23:43:00,
2013-08-20 18:53:00,85.0,-99.9,-100.00,SSE,147,4.0,-999.0,-999,0.00,,,0.00,,2013-08-20 23:53:00,
2013-08-20 19:12:00,85.0,-99.9,-100.00,SSE,168,2.0,-999.0,-999,0.00,,,0.00,,2013-08-21 00:12:00,
2013-08-20 19:23:00,85.0,-99.9,-100.00,SSE,168,2.0,-999.0,-999,0.00,,,0.00,,2013-08-21 00:23:00,
2013-08-20 19:42:00,82.0,-99.9,-100.00,SSW,208,1.0,-999.0,-999,0.00,,,0.00,,2013-08-21 00:42:00,
2013-08-20 19:52:00,82.0,-99.9,-100.00,SSW,208,1.0,-999.0,-999,0.00,,,0.00,,2013-08-21 00:52:00,
2013-08-20 20:11:00,80.0,-99.9,-100.00,SSW,208,2.0,-999.0,-999,0.00,,,0.00,,2013-08-21 01:11:00,
2013-08-20 20:22:00,80.0,-99.9,-100.00,SSW,208,2.0,-999.0,-999,0.00,,,0.00,,2013-08-21 01:22:00,
2013-08-20 20:42:00,80.0,-99.9,-100.00,SSE,165,3.0,-999.0,-999,0.00,,,0.00,,2013-08-21 01:42:00,
2013-08-20 20:52:00,80.0,-99.9,-100.00,SSE,165,3.0,-999.0,-999,0.00,,,0.00,,2013-08-21 01:52:00,
2013-08-20 21:12:00,79.0,-99.9,-100.00,SSW,206,2.0,-999.0,-999,0.00,,,0.00,,2013-08-21 02:12:00,
2013-08-20 21:22:00,79.0,-99.9,-100.00,SSW,206,2.0,-999.0,-999,0.00,,,0.00,,2013-08-21 02:22:00,
2013-08-20 21:42:00,78.0,-99.9,-100.00,SSW,203,3.0,-999.0,-999,0.00,,,0.00,,2013-08-21 02:42:00,
2013-08-20 21:52:00,78.0,-99.9,-100.00,SSW,203,3.0,-999.0,-999,0.00,,,0.00,,2013-08-21 02:52:00,
2013-08-20 22:12:00,79.0,-99.9,-100.00,South,170,3.0,-999.0,-999,0.00,,,0.00,,2013-08-21 03:12:00,
2013-08-20 22:23:00,79.0,-99.9,-100.00,South,170,3.0,-999.0,-999,0.00,,,0.00,,2013-08-21 03:23:00,
2013-08-20 22:44:00,78.0,-99.9,-100.00,SSE,161,3.0,-999.0,-999,0.00,,,0.00,,2013-08-21 03:44:00,
2013-08-20 22:55:00,78.0,-99.9,-100.00,SSE,161,3.0,-999.0,-999,0.00,,,0.00,,2013-08-21 03:55:00,
2013-08-20 23:14:00,78.0,-99.9,-100.00,SSE,156,3.0,-999.0,-999,0.00,,,0.00,,2013-08-21 04:14:00,
2013-08-20 23:24:00,78.0,-99.9,-100.00,SSE,156,3.0,-999.0,-999,0.00,,,0.00,,2013-08-21 04:24:00,
2013-08-20 23:44:00,77.0,-99.9,-100.00,South,188,2.0,-999.0,-999,0.00,,,0.00,,2013-08-21 04:44:00,
2013-08-20 23:54:00,77.0,-99.9,-100.00,South,188,2.0,-999.0,-999,0.00,,,0.00,,2013-08-21 04:54:00,